This is the latest recevied weather packets stored in our database for station/object KC5EZZ-2. If no packets are shown the sender has not sent any weather packets the latest 10 day(s).
| Time | Temp. | Humidity | Pressure | Rain* | Wind** | Luminosity | Snow |
|---|---|---|---|---|---|---|---|
| 1777736465 | 18.33° C | - | - | 0 mm | 1.79 m/s, 266° | - | - |
| 1777736163 | 18.33° C | - | - | 0 mm | 2.24 m/s, 323° | - | - |
| 1777735863 | 19.44° C | - | - | 0 mm | 1.34 m/s, 287° | - | - |
| 1777735564 | 19.44° C | - | - | 0 mm | 0 m/s | - | - |
| 1777735261 | 18.33° C | - | - | 0 mm | 1.34 m/s, 248° | - | - |
| 1777734962 | 18.33° C | - | - | 0 mm | 1.34 m/s, 24° | - | - |
| 1777734663 | 17.78° C | - | - | 0 mm | 0.89 m/s, 14° | - | - |
| 1777734454 | 17.78° C | - | - | 0 mm | 1.79 m/s, 302° | - | - |
| 1777734360 | 17.78° C | - | - | 0 mm | 1.79 m/s, 302° | - | - |
| 1777734061 | 17.78° C | - | - | 0 mm | 0 m/s | - | - |
| 1777733761 | 17.22° C | - | - | 0 mm | 2.24 m/s, 316° | - | - |
| 1777733459 | 17.78° C | - | - | 0 mm | 2.24 m/s, 277° | - | - |
| 1777733159 | 17.78° C | - | - | 0 mm | 2.24 m/s, 290° | - | - |
| 1777732860 | 17.78° C | - | - | 0 mm | 0.45 m/s, 253° | - | - |
| 1777732557 | 17.22° C | - | - | 0 mm | 0.45 m/s, 319° | - | - |
| 1777732258 | 16.67° C | - | - | 0 mm | 0.89 m/s, 248° | - | - |
| 1777731958 | 15.56° C | - | - | 0 mm | 1.34 m/s, 270° | - | - |
| 1777731656 | 15° C | - | - | 0 mm | 2.68 m/s, 270° | - | - |
| 1777731357 | 15° C | - | - | 0 mm | 2.24 m/s, 319° | - | - |
| 1777730755 | 13.89° C | - | - | 0 mm | 1.79 m/s, 336° | - | - |
| 1777730455 | 13.89° C | - | - | 0 mm | 2.24 m/s, 318° | - | - |
| 1777730156 | 13.89° C | - | - | 0 mm | 2.24 m/s, 328° | - | - |
| 1777729854 | 13.89° C | - | - | 0 mm | 2.24 m/s, 322° | - | - |
| 1777729554 | 13.89° C | - | - | 0 mm | 2.68 m/s, 309° | - | - |
| 1777729255 | 14.44° C | - | - | 0 mm | 2.24 m/s, 319° | - | - |
* Rain latest hour (hover to see other rain measurements)
** Current wind speed in m/s (hover to see current wind gust speed)